Location: Bishopstone
(51.0167°N, 1.9000°W)
Time: 05:42:10
(UTC+00:00)

SL-16 R/B - Pass Details

Date: 16 September 2019
Orbit: 840 x 849 km, 71.0° (Epoch: 18 October)

Event Time Altitude Azimuth Distance (km) Brightness Sun altitude
Rises 20:38:06 0° 330° (NNW) 3,416 6.4 -21.2°
Reaches altitude 10° 20:40:35 10° 333° (NNW) 2,478 5.5 -21.5°
Maximum altitude 20:46:16 69° 57° (ENE) 910 2.2 -22.2°
Enters shadow 20:47:40 50° 119° (ESE) 1,074 2.3 -22.4°
